Wind_Speed
4 3 8 7 3 4 6 5 3 2 1 2 3 3 2 4 5 5 5 4 4 5 6 6 6 5 4 5 7 7 9 9 10 13 10 12 11 4 2 3 4 4 5 5 7 7 6 4 3 5 4 3 5 4 5 4 2 2 3 1 2 2 2 2 3 3 3 6 5 8 7 2 3 4 3 3 7 8 8 9 9 8 10 9 8 9 11 11
5 5 8 4 5 2 2 3 3 2 0 1 2 1 3 5 6 7 9 9 7 7 8 9 8 7 5 3 5 6 7 6 8 13 15 14 8 2 2 3 3 4 4 5 6 3 2 1 1 2 3 4 5 4 4 4 4 4 3 1 4 3 4 6 7 6 4 7 8 8 5 1 2 3 1 2 5 8 9 10 10 10 10 10 10 10 9 10
7 7 7 2 5 5 3 3 4 5 2 1 1 3 3 3 6 8 7 9 9 9 10 11 10 9 6 4 5 5 6 4 7 14 15 11 5 1 1 2 2 3 3 3 4 4 3 3 1 1 3 5 5 4 5 5 5 4 4 3 3 4 6 10 10 8 8 7 9 7 4 1 0 0 0 3 6 6 6 4 5 6 4 4 6 9 10 13
7 3 2 7 5 3 5 1 6 6 4 3 4 4 4 3 6 9 6 6 9 8 8 10 12 11 8 7 7 6 5 2 6 14 14 9 3 1 1 1 1 1 2 3 4 5 5 4 2 1 4 5 5 6 6 7 5 5 5 4 2 5 6 8 8 8 9 7 8 7 4 1 1 2 2 4 6 4 2 2 0 1 2 2 4 7 10 12
5 7 10 8 6 5 6 8 8 6 4 4 5 5 6 5 6 8 5 4 6 3 3 7 11 10 8 7 6 5 4 1 5 12 11 7 3 2 2 1 1 1 0 1 5 6 5 4 3 2 4 5 4 5 5 6 6 6 6 7 7 6 6 5 7 8 7 7 6 5 2 1 1 4 6 6 5 2 2 1 4 4 5 7 8 9 9 10
9 10 9 6 6 7 10 10 7 5 4 4 5 5 5 6 8 7 3 3 4 1 2 8 10 5 2 4 2 1 1 1 6 10 9 7 4 2 3 3 3 2 1 3 6 5 3 1 2 2 4 5 5 5 4 4 4 4 5 9 11 9 8 6 7 8 6 5 4 2 2 3 4 6 6 8 11 9 4 4 6 6 9 11 12 12 12 12
8 7 6 5 6 7 8 7 6 4 4 5 4 4 4 6 7 5 2 2 2 1 1 6 9 10 8 5 5 4 5 3 6 7 9 8 4 2 2 3 4 4 3 5 5 2 0 2 3 5 6 5 6 7 5 8 9 6 4 7 10 11 10 7 7 7 6 5 3 3 4 5 6 4 3 9 14 14 10 8 8 10 10 11 11 11 11 11
6 6 5 4 5 5 5 6 5 5 5 5 4 3 2 4 3 1 2 0 1 2 1 2 6 11 11 8 7 7 8 8 8 8 10 9 5 2 2 3 3 3 3 4 3 3 1 2 4 5 5 5 5 5 5 8 11 7 5 6 8 9 9 7 6 4 4 2 2 3 7 9 7 5 7 14 15 11 10 10 12 12 10 10 10 9 10 10
6 5 5 5 6 6 6 6 6 6 6 4 3 3 1 3 3 0 1 1 2 3 4 2 1 3 5 5 3 4 8 9 9 9 10 9 7 4 3 3 3 4 4 3 3 4 3 4 5 3 5 8 7 5 7 5 5 5 8 9 8 8 7 6 4 2 1 1 2 3 7 8 5 5 10 13 11 9 11 12 12 11 10 9 9 9 9 10
6 6 6 6 6 7 7 6 5 6 4 3 3 4 3 5 2 1 2 4 3 4 6 5 4 4 3 5 2 1 4 8 10 9 9 10 9 5 3 4 4 3 2 2 4 5 4 4 6 7 9 10 8 5 8 4 6 10 13 12 10 7 5 3 2 1 2 5 4 3 6 8 3 2 5 6 8 10 12 11 11 11 10 9 9 10 10 10
7 7 7 6 6 6 6 5 4 4 4 4 4 4 4 4 1 1 4 7 2 2 4 6 6 5 4 5 3 4 3 8 10 9 9 8 9 8 7 7 7 6 3 2 4 2 3 5 9 9 6 7 8 8 9 9 12 15 15 11 8 5 4 3 3 2 3 5 6 4 7 9 4 3 8 10 10 10 10 9 10 11 11 10 10 11 11 12
8 8 8 7 6 5 5 4 4 4 3 3 3 3 3 1 3 2 4 5 7 7 6 5 4 3 2 1 8 8 5 9 10 11 10 7 9 10 9 9 7 8 7 3 5 4 6 8 6 6 6 6 5 6 8 10 11 12 8 5 4 3 3 5 5 3 3 3 3 5 6 6 7 7 10 12 11 9 9 10 11 12 12 11 11 11 13 14
8 9 8 7 6 6 5 4 3 3 2 2 2 1 2 4 3 3 4 8 13 13 11 9 6 6 5 6 9 8 6 7 8 10 11 8 11 11 10 10 8 8 8 5 7 6 7 3 1 7 13 9 5 6 9 9 7 6 3 1 4 2 2 6 5 3 4 4 2 4 3 2 9 12 10 11 12 9 9 11 11 13 13 12 12 12 13 13
8 8 7 7 6 5 4 3 3 3 2 2 3 2 3 4 3 3 4 8 9 8 5 3 4 2 4 7 7 5 4 5 6 7 8 9 12 12 10 11 11 10 8 7 9 7 6 6 7 12 14 10 11 11 9 6 3 2 1 1 3 2 1 4 3 2 3 2 1 2 2 3 4 11 11 11 11 9 9 11 11 13 12 12 12 12 14 13
5 7 7 6 5 4 3 3 4 3 2 2 2 2 3 3 3 4 4 6 3 4 3 3 5 4 6 7 4 3 4 4 5 5 5 6 8 10 11 13 14 13 12 12 13 11 10 11 12 13 12 12 13 9 4 3 3 2 2 1 3 2 1 3 1 1 1 1 1 1 3 4 2 9 12 11 10 9 9 11 11 12 11 11 12 12 13 13
5 6 6 6 5 4 3 4 4 3 2 1 2 4 5 4 3 4 6 6 3 2 3 5 6 6 6 5 3 3 4 4 4 5 5 6 7 8 9 11 14 14 14 13 12 11 9 10 13 13 9 7 4 2 2 2 2 2 2 2 1 1 1 2 0 1 3 3 3 3 3 4 2 8 12 12 11 11 10 12 12 12 12 11 12 12 12 12
5 6 6 6 5 5 4 4 4 4 3 4 4 5 5 6 6 6 7 8 6 5 5 5 6 6 5 3 1 4 6 4 4 3 2 4 6 7 8 9 11 11 11 10 8 8 7 7 9 7 4 3 3 2 1 1 2 2 2 2 1 1 2 1 1 2 3 3 3 4 4 6 5 5 12 14 13 12 12 13 13 12 12 11 11 11 11 11
6 6 6 6 6 5 6 6 7 8 9 9 8 7 5 5 6 5 5 5 3 3 3 2 2 3 4 4 4 6 7 4 3 1 1 1 3 5 6 5 5 6 6 6 6 6 5 3 3 2 3 5 6 3 1 1 1 2 2 2 2 2 2 1 1 2 3 3 3 3 6 9 10 9 12 16 16 14 14 14 12 12 11 10 10 10 10 10
7 7 7 6 6 7 7 8 10 10 11 11 10 8 6 4 5 4 1 2 1 2 0 3 4 3 2 4 5 7 8 6 3 1 2 1 1 3 5 4 3 6 4 2 4 5 4 2 2 3 4 5 5 4 2 2 3 4 3 2 3 3 1 2 2 1 4 3 5 6 7 9 9 8 9 14 19 17 15 13 12 12 11 11 9 9 9 10
8 7 6 6 5 6 7 9 10 9 7 7 6 5 4 2 3 5 8 9 10 11 6 6 8 6 3 2 5 6 7 8 7 5 3 2 1 2 4 4 3 6 5 2 2 4 5 5 4 4 3 4 4 4 4 4 5 4 4 4 4 2 1 2 2 1 4 3 5 6 6 9 8 8 11 11 17 15 13 12 12 13 12 11 11 10 10 10
5 4 4 4 3 4 6 8 9 6 3 3 2 1 2 3 1 5 12 15 14 14 12 10 10 8 5 3 5 6 5 6 9 7 3 1 2 2 3 3 1 3 4 2 2 3 5 5 4 3 2 3 3 3 4 4 5 4 3 5 3 1 1 2 3 1 2 2 4 4 6 10 8 8 8 9 13 11 12 12 12 13 12 11 10 10 10 9
4 4 5 4 3 3 4 7 8 5 0 4 5 4 3 2 4 8 11 10 10 11 11 11 10 9 8 6 5 6 6 4 6 7 4 1 1 3 3 3 3 2 1 2 1 2 5 4 2 3 2 3 3 3 4 3 4 4 4 4 3 3 3 2 2 2 0 0 4 7 8 11 10 8 5 11 9 7 10 11 10 11 11 10 9 9 9 9
6 6 6 5 3 2 5 8 8 5 2 3 2 3 4 6 9 11 11 8 7 9 9 9 9 9 8 8 7 6 7 5 4 8 7 3 3 5 5 4 4 3 3 4 1 3 3 2 1 3 3 4 2 1 4 3 1 3 3 2 2 4 3 1 0 4 5 2 4 6 7 9 7 3 2 6 6 5 8 9 9 9 9 9 8 9 10 9
7 6 6 5 5 3 4 8 8 5 3 5 7 9 10 10 9 8 7 5 4 4 6 7 8 9 7 6 7 7 8 9 7 9 9 5 4 5 5 5 5 4 4 5 7 7 3 1 1 3 3 3 2 2 5 3 1 3 4 3 1 2 2 3 4 8 7 2 3 6 5 5 2 2 1 2 2 3 7 8 9 11 11 10 10 11 12 11
6 5 5 5 5 6 9 9 8 7 8 8 6 7 8 7 5 3 2 2 2 2 3 4 5 7 7 5 4 5 6 8 11 12 8 6 5 4 4 5 4 2 3 5 9 8 3 1 1 3 3 2 2 2 3 2 2 1 2 2 1 2 3 5 7 7 4 2 2 3 3 4 3 2 3 3 2 4 6 8 9 12 12 12 13 14 14 13
6 5 4 3 2 4 7 7 8 6 6 5 2 2 3 4 4 3 1 1 1 2 2 2 3 4 6 5 2 2 2 3 9 13 8 5 5 4 3 4 4 3 2 4 5 3 2 1 1 2 2 3 1 1 1 1 2 1 2 2 1 2 3 4 6 4 2 2 3 3 3 3 6 2 2 3 2 4 5 7 9 10 11 12 13 13 13 12
6 5 3 1 0 1 2 2 2 2 3 3 2 2 3 3 3 2 1 1 1 1 1 1 2 3 5 6 4 1 1 1 5 11 10 6 5 4 3 1 3 4 2 3 3 1 1 3 3 1 1 2 1 1 1 2 2 1 3 2 2 2 3 3 4 2 1 2 3 5 3 1 5 4 1 3 1 3 5 7 9 12 13 12 12 11 11 10
6 5 4 4 3 2 1 2 2 3 3 3 3 3 2 3 3 0 2 1 2 1 2 1 2 3 5 7 7 4 3 2 2 6 10 8 5 4 4 2 2 4 2 2 2 1 1 1 1 1 1 1 0 1 2 2 1 0 1 1 2 2 3 3 2 4 3 2 3 5 3 1 4 4 1 2 1 3 5 5 5 8 11 12 12 11 10 10
6 7 6 6 5 4 4 5 5 5 4 4 3 2 2 3 2 2 2 1 1 1 1 1 2 3 3 3 7 6 5 5 3 4 8 8 6 4 4 4 6 7 3 3 3 2 0 1 1 2 1 0 0 1 2 1 1 0 1 1 1 1 2 2 2 4 2 3 1 5 3 1 4 5 2 1 2 2 1 3 4 3 2 6 8 9 9 10
5 5 6 7 7 6 7 6 6 5 5 4 4 3 3 2 1 3 1 2 0 1 1 1 0 3 4 1 3 5 4 5 5 5 5 6 7 7 7 7 6 5 4 7 6 3 2 2 1 1 1 1 1 1 0 1 2 3 2 1 1 2 2 2 3 2 2 2 3 4 3 2 2 4 1 1 1 1 3 4 4 4 3 0 3 6 8 9
3 3 5 6 7 7 7 6 6 5 4 4 4 3 3 2 2 1 1 1 1 0 1 2 1 3 3 0 1 4 3 3 5 5 3 3 4 5 5 3 1 2 3 4 4 2 3 1 1 2 1 1 1 1 2 2 3 2 2 1 1 1 1 0 2 1 3 1 3 3 3 2 1 3 1 3 3 3 4 4 5 5 4 2 2 4 5 7
1 2 3 5 6 7 7 6 5 5 5 5 5 4 2 1 1 1 2 1 1 1 0 1 1 2 3 1 2 2 1 2 5 4 2 2 3 3 2 0 0 2 1 1 1 1 2 1 1 2 1 0 0 1 1 1 2 2 2 2 2 2 2 2 2 1 1 2 3 1 2 1 4 5 2 4 4 4 4 4 4 3 1 2 2 4 5 7
1 1 2 4 5 5 6 6 5 6 6 6 5 3 2 1 1 1 0 1 0 1 1 1 1 2 2 2 2 2 1 1 3 3 1 1 1 1 2 1 1 1 1 1 1 1 2 1 1 1 1 1 1 2 1 2 3 2 1 2 2 2 2 2 3 2 1 3 2 0 2 2 3 4 3 5 5 5 4 3 2 1 1 2 4 6 8 9
0 1 1 2 3 3 4 5 6 6 7 6 4 2 3 1 2 0 1 2 1 1 1 1 0 2 3 2 1 1 1 0 2 1 0 1 0 0 0 1 2 1 0 1 1 0 0 1 1 1 1 2 1 2 1 2 3 2 1 2 2 3 2 0 1 1 2 4 3 2 1 2 2 2 3 6 6 5 3 2 2 2 3 4 4 5 7 9
1 1 1 1 1 2 3 5 5 6 7 5 2 3 2 2 1 1 1 1 0 1 1 2 1 1 3 1 1 1 1 0 1 1 1 1 0 1 1 1 3 3 1 1 0 1 2 1 1 1 2 2 1 1 1 1 2 2 1 2 1 1 1 1 1 2 1 2 2 2 2 4 3 1 3 5 4 3 3 2 2 3 4 4 5 5 7 8
1 1 1 1 0 1 2 4 4 6 6 3 3 1 2 2 0 1 0 0 1 2 1 1 1 1 0 0 1 1 0 0 0 1 1 0 1 1 1 1 3 3 2 2 1 1 1 1 1 1 1 2 2 1 1 1 1 1 2 1 2 0 2 2 1 1 2 1 3 2 2 4 2 2 1 3 2 2 4 4 4 4 3 5 6 7 7 7
1 0 1 2 2 1 2 3 3 5 4 3 4 1 2 0 1 1 2 1 0 1 2 1 0 1 1 1 1 1 1 0 1 1 1 0 1 0 2 1 2 2 2 1 1 0 1 2 2 1 1 0 0 2 1 1 1 1 1 2 2 1 2 2 0 2 1 1 3 1 2 5 3 3 3 1 3 3 5 5 5 3 2 3 6 6 5 7
1 1 1 3 3 2 1 2 4 5 2 4 1 1 1 1 1 1 2 2 1 1 0 1 0 1 1 2 2 1 2 1 1 1 1 1 0 0 2 2 1 2 1 1 2 0 0 1 2 2 1 1 0 2 2 2 2 1 1 2 0 2 0 0 1 1 1 2 4 3 2 3 3 4 3 4 5 6 6 5 3 3 4 5 6 7 7 9
1 0 1 3 4 2 1 3 4 4 3 3 1 2 0 0 1 1 1 1 2 1 1 1 0 1 0 1 1 1 2 1 1 1 0 0 1 1 1 1 1 2 1 2 2 0 1 1 2 3 1 1 1 1 0 1 1 2 2 2 1 2 1 1 1 1 1 1 4 4 4 3 4 4 3 7 8 7 7 6 4 6 7 7 8 8 10 10
1 1 2 3 3 2 1 4 4 3 3 1 1 1 0 0 1 1 1 2 2 1 1 1 0 1 1 0 1 0 1 1 1 0 1 0 1 2 2 2 1 1 1 3 2 0 1 2 1 3 2 1 1 1 1 1 1 0 1 1 0 0 1 1 0 1 2 1 2 3 4 5 5 1 2 3 5 7 8 7 7 6 7 8 9 9 9 9
1 2 2 2 3 1 3 4 3 3 2 1 1 1 0 0 1 1 1 2 2 1 1 2 1 1 1 1 1 1 1 1 1 0 1 0 1 1 2 2 2 1 2 3 2 0 1 1 1 2 1 1 1 1 1 1 0 1 2 2 1 1 1 1 1 1 1 1 2 1 3 7 5 2 4 3 3 5 6 8 8 3 6 8 9 10 9 9
2 2 2 2 2 1 3 4 3 3 2 1 1 1 1 1 1 1 1 2 1 1 1 1 1 1 1 1 1 0 1 1 1 1 1 1 1 1 1 1 1 1 2 2 1 1 1 1 0 2 2 1 1 0 0 2 1 1 1 1 1 1 2 3 1 2 0 1 1 2 2 7 6 1 3 3 3 3 3 5 5 1 6 8 9 10 10 10
2 0 2 2 2 2 3 2 2 2 3 1 1 2 2 1 1 1 1 1 1 2 1 1 2 2 1 0 0 1 1 1 2 1 1 1 1 1 1 0 1 1 2 1 1 1 1 1 1 2 1 1 0 1 2 3 1 0 2 1 0 0 2 3 3 2 1 2 3 2 2 7 6 1 0 0 2 1 3 5 4 5 7 8 9 10 11 11
1 1 1 2 1 4 3 1 1 3 2 1 2 2 1 1 0 1 0 1 0 1 1 0 1 2 1 1 1 1 1 1 1 1 1 1 1 1 1 0 1 2 2 1 1 1 0 0 1 1 3 3 3 1 1 2 1 2 2 2 2 3 4 2 1 2 1 5 7 4 4 7 4 1 2 3 2 3 6 7 6 6 6 8 10 11 11 11
0 1 1 2 1 3 3 1 3 4 3 2 1 1 1 0 1 1 1 1 0 1 0 1 1 2 2 2 2 2 2 1 1 1 1 1 1 0 0 0 1 3 2 1 2 2 0 0 2 2 0 1 2 1 1 0 1 2 1 2 3 4 5 2 1 2 2 4 6 5 5 6 4 3 4 4 2 3 5 6 4 4 6 11 12 12 11 10
1 1 1 2 3 2 4 4 3 4 4 3 2 2 2 1 1 3 2 1 0 1 2 1 1 2 2 1 2 2 2 2 2 1 1 1 1 0 0 1 1 2 2 2 3 2 1 1 2 5 5 5 4 3 2 1 1 2 2 3 4 4 5 3 2 3 4 3 4 7 8 9 12 11 9 6 6 6 8 10 11 10 12 14 12 10 9 11
1 1 0 1 3 5 6 6 5 3 4 4 3 3 3 3 2 2 2 1 1 1 1 1 1 2 2 2 2 1 1 2 2 0 2 0 2 1 1 1 0 0 2 2 2 2 1 2 3 5 7 6 2 2 3 3 3 5 5 6 7 6 6 6 6 6 4 1 6 7 6 8 13 14 11 8 6 5 8 14 17 17 16 14 10 9 10 11
1 2 2 2 1 1 1 3 3 3 3 2 2 2 3 3 2 2 2 1 0 2 1 0 2 4 3 2 2 2 0 2 1 2 1 1 2 1 0 0 0 1 2 2 1 2 2 3 2 1 5 7 5 5 5 5 5 6 6 7 8 8 9 11 12 10 5 4 9 7 4 8 14 15 12 10 8 8 12 18 20 18 14 10 9 9 11 11
3 4 4 4 3 3 3 2 3 3 3 3 2 2 3 4 3 1 2 2 1 1 2 1 3 4 5 2 2 2 3 2 2 3 2 2 2 2 1 0 1 2 2 2 1 1 1 2 1 1 4 8 7 7 5 5 4 5 7 9 8 10 13 13 13 11 8 10 14 13 12 14 18 18 14 15 18 17 17 19 18 15 9 7 7 8 9 10
2 3 4 5 4 3 3 2 2 1 1 1 1 2 3 4 4 2 2 4 1 0 4 3 2 1 2 3 3 1 2 2 0 2 4 3 1 3 3 1 2 2 1 2 1 1 1 2 1 3 3 6 4 2 0 3 4 5 9 10 9 11 11 10 11 9 7 11 15 14 12 14 20 20 15 17 19 15 13 14 14 11 7 6 8 9 9 9
1 1 3 4 3 2 2 1 1 1 1 0 1 1 2 3 5 4 2 3 3 3 5 5 2 2 3 1 5 3 2 3 2 1 5 4 2 3 3 2 6 5 3 3 2 1 2 1 1 3 1 5 3 3 1 3 4 7 12 13 13 11 8 8 9 7 9 11 10 7 7 10 15 14 10 10 10 7 9 11 11 12 12 13 13 11 10 9
1 1 3 3 1 1 2 1 1 1 0 1 1 2 2 1 3 5 2 1 2 4 6 4 3 3 2 1 5 3 1 1 0 1 4 4 2 3 3 3 7 7 5 5 3 2 3 2 0 2 1 4 3 3 3 3 4 6 9 10 11 10 8 8 7 8 11 10 5 5 9 10 7 6 6 6 5 6 9 11 13 16 18 18 16 13 9 8
Wind_Direction
87 44 13 25 107 145 169 150 53 34 109 66 62 54 351 304 298 287 277 255 248 264 280 286 291 320 355 16 19 15 12 36 21 0 14 8 360 21 71 128 140 137 140 136 106 67 65 83 71 94 91 69 77 83 98 93 72 37 291 205 94 65 59 358 22 57 136 129 137 155 163 203 122 153 211 265 242 228 239 248 244 242 252 260 260 261 268 277
79 46 10 26 108 85 182 141 17 358 22 56 82 303 291 312 315 296 269 246 241 255 264 275 282 297 311 338 350 345 345 16 13 3 15 3 343 25 107 140 130 119 123 126 117 75 57 124 92 132 136 83 74 90 87 52 42 28 313 13 44 53 51 27 44 35 44 120 137 142 157 209 89 135 192 282 252 219 232 247 223 228 252 257 262 261 259 265
81 35 7 88 104 51 98 126 334 323 291 266 257 267 277 327 341 336 289 236 229 247 260 275 285 291 292 300 310 312 317 335 355 359 7 357 335 28 40 134 113 105 104 90 122 145 133 125 141 198 129 88 68 93 75 25 31 25 8 50 67 107 73 39 52 41 32 101 129 122 137 198 104 160 290 290 295 257 243 269 198 208 250 245 258 256 253 261
82 26 167 164 157 92 107 123 300 286 266 277 281 261 243 273 334 346 329 219 215 241 266 285 292 291 280 278 281 284 300 300 345 352 360 357 3 63 15 147 170 123 104 79 114 136 139 130 125 137 116 104 87 87 53 13 29 29 29 55 71 114 92 43 56 59 40 73 108 115 140 197 206 216 256 273 298 267 178 36 219 257 320 237 250 260 268 275
151 200 189 195 217 215 238 267 273 267 279 289 282 263 248 270 314 330 328 195 190 228 288 320 316 299 269 259 259 272 301 290 335 348 359 6 25 69 53 109 206 211 238 153 122 111 112 114 111 118 107 103 101 90 39 21 66 62 47 44 35 72 98 72 78 79 52 58 94 124 147 343 269 245 243 239 258 255 95 10 275 273 269 249 245 253 265 271
184 199 203 228 239 234 247 257 257 258 286 289 287 280 266 283 292 294 292 181 162 168 351 2 359 353 215 211 215 249 237 254 329 349 12 20 34 71 81 86 98 118 132 138 120 85 66 149 195 126 90 77 65 76 53 31 80 96 66 50 44 66 93 96 96 86 60 50 65 74 355 331 281 264 241 227 239 250 265 277 270 255 252 259 260 261 262 264
191 207 220 230 229 231 234 237 244 254 280 291 295 299 277 282 283 259 232 188 168 198 2 17 34 71 94 104 92 94 112 75 358 7 28 27 31 60 81 85 83 86 112 130 117 80 301 242 183 119 99 89 74 76 64 55 72 97 102 71 64 74 85 93 102 89 62 48 25 355 314 284 266 271 263 248 249 255 264 257 251 255 262 269 269 269 267 267
205 216 218 210 201 205 219 236 250 262 276 286 291 294 274 291 309 204 198 252 207 221 149 68 64 81 84 79 80 75 62 40 23 31 33 28 32 56 67 74 79 75 106 140 126 107 91 102 121 108 84 77 85 73 42 57 67 70 103 104 90 85 87 92 95 82 60 45 341 310 276 267 253 264 279 270 265 257 249 238 243 257 266 269 270 271 269 270
212 214 208 204 206 215 234 243 249 262 269 282 276 253 276 331 344 133 162 333 273 238 196 182 26 93 75 45 58 58 35 31 37 39 31 32 42 51 59 57 62 76 95 130 143 124 93 96 96 92 101 87 90 70 10 19 63 81 112 114 107 101 100 97 89 81 54 263 295 298 277 273 246 261 280 270 259 233 225 231 244 254 257 263 269 269 266 267
214 218 218 223 232 238 240 236 248 262 265 279 256 232 298 336 329 169 10 338 298 231 217 230 251 229 276 340 7 58 30 44 51 46 38 39 48 56 74 63 49 51 72 134 149 128 89 97 94 99 114 92 81 55 14 39 110 113 113 105 107 111 109 105 104 159 261 250 249 273 280 282 264 260 275 237 210 211 220 231 240 245 252 257 258 260 262 262
226 227 231 238 244 243 236 235 256 266 262 268 244 243 306 338 199 158 2 357 17 189 220 227 229 225 268 299 81 101 66 61 60 60 54 52 62 69 76 66 50 42 35 171 175 135 73 117 116 104 105 93 86 65 61 100 118 120 117 101 108 123 129 165 196 207 261 242 233 263 277 276 255 223 241 214 199 208 213 223 228 235 247 250 249 254 259 263
240 238 241 244 246 248 240 244 266 260 252 248 233 265 314 61 131 75 23 45 85 100 100 115 154 128 102 97 99 100 85 66 63 63 56 57 66 56 57 55 43 47 50 106 147 132 122 129 118 90 99 117 115 84 95 119 124 132 136 101 121 157 171 194 208 211 246 231 247 298 294 260 210 225 241 211 202 208 209 219 224 232 242 246 249 251 258 268
251 245 243 243 249 254 247 254 255 232 225 211 185 117 89 112 114 71 85 106 99 96 96 94 100 107 94 82 90 96 83 62 57 62 57 61 67 52 52 58 54 64 63 84 113 127 141 144 354 107 112 113 118 121 122 124 131 157 191 80 140 192 207 186 193 213 230 230 287 334 325 250 204 220 223 195 203 209 210 225 230 236 242 245 250 253 259 268
249 239 234 236 244 245 238 228 206 188 195 191 165 135 103 99 93 77 125 136 103 78 79 100 106 109 99 92 89 83 67 53 49 62 61 62 70 64 64 74 74 80 82 87 96 100 110 109 112 112 104 101 117 119 112 120 161 169 55 56 177 236 204 159 180 228 231 227 316 1 279 275 196 195 192 188 200 202 213 234 239 242 246 248 250 257 264 269
220 212 212 217 217 211 200 188 178 174 199 197 175 166 120 90 84 80 127 161 142 39 37 110 121 122 109 96 79 55 38 43 51 53 59 59 69 70 73 83 83 82 84 83 82 83 94 108 111 102 92 100 117 120 114 162 207 145 72 312 213 231 169 145 196 275 328 306 240 262 266 289 106 158 182 193 194 198 224 241 246 248 249 251 254 260 268 273
160 173 181 186 177 163 162 169 169 169 190 177 135 129 111 96 98 94 105 128 135 73 72 111 131 136 112 85 54 39 25 37 45 40 64 66 66 72 77 84 85 81 78 76 79 86 96 104 97 95 100 105 112 160 157 177 209 172 198 225 186 266 211 160 201 335 340 323 234 212 258 305 54 149 183 201 201 205 229 244 249 254 253 254 260 264 269 274
125 142 153 154 146 139 138 146 154 142 112 103 121 125 108 90 98 108 104 108 112 98 95 105 118 112 82 71 57 17 17 30 28 31 77 66 65 70 72 81 85 78 68 66 73 81 84 90 91 91 97 59 2 303 141 199 224 179 229 241 141 260 240 183 71 359 306 274 225 202 231 274 282 219 205 205 207 208 225 245 249 252 256 258 262 265 270 275
118 130 139 137 132 131 132 137 138 125 103 91 99 119 122 94 89 102 110 122 115 92 111 91 91 102 55 58 61 29 26 22 2 24 355 8 73 60 51 68 76 50 39 52 64 62 60 76 109 99 67 39 14 1 65 177 263 353 341 329 348 271 241 122 100 13 321 259 236 241 246 264 274 265 230 207 204 208 222 241 249 250 253 255 260 268 272 275
121 120 121 121 126 134 141 147 139 122 101 89 93 106 119 103 74 55 86 184 123 66 104 5 40 107 104 62 51 37 40 33 5 352 344 2 61 36 39 50 49 28 5 13 52 41 30 35 53 46 34 17 16 20 22 357 321 318 324 326 312 294 307 79 103 42 353 304 255 246 244 265 271 275 265 221 202 205 220 235 247 248 244 242 247 258 265 271
114 109 110 115 130 146 156 162 152 133 105 91 94 103 130 137 69 51 66 79 80 79 76 56 67 95 111 65 34 29 40 40 29 7 340 15 14 17 41 35 44 44 29 8 32 37 51 63 49 33 20 360 4 6 338 315 299 295 308 288 267 289 8 80 87 19 354 324 260 240 246 271 269 270 277 229 191 195 217 232 244 243 239 242 240 236 246 262
110 100 104 115 143 174 180 182 175 159 110 56 11 336 218 239 239 99 82 72 72 80 78 73 79 82 71 50 32 30 42 42 27 14 351 58 55 34 16 349 2 52 43 359 323 24 55 72 56 35 20 337 327 332 321 305 307 314 305 286 281 2 342 62 76 272 6 356 273 312 308 284 272 269 259 181 168 195 218 228 241 237 233 234 230 226 239 257
112 95 90 95 118 168 182 185 183 182 247 336 318 294 246 215 151 123 103 83 74 76 75 72 70 65 58 56 44 32 43 43 18 19 28 109 71 25 8 19 45 58 34 347 321 54 55 71 60 30 354 300 270 271 304 309 327 319 283 285 332 5 325 22 87 231 343 296 286 340 327 290 278 268 214 155 169 210 212 220 229 225 222 219 220 224 235 254
117 101 88 89 95 153 188 187 186 202 276 331 14 103 138 147 132 115 107 107 88 68 68 70 64 58 55 53 48 44 50 42 356 7 25 70 86 50 35 41 62 70 23 2 26 123 84 85 39 353 324 307 275 300 333 310 299 333 337 352 17 17 353 275 301 319 314 284 285 309 297 288 288 271 144 153 184 204 203 218 219 210 204 201 212 224 234 257
122 107 97 96 83 86 153 178 187 191 153 119 103 110 128 136 129 114 103 110 104 68 63 62 53 48 43 34 39 53 58 47 19 8 23 58 81 66 51 44 64 61 30 46 81 94 95 101 339 297 276 297 301 21 19 4 78 27 20 50 67 1 338 257 298 317 310 276 272 300 302 297 278 154 145 166 185 235 226 225 228 223 215 210 221 231 244 265
136 126 113 100 87 89 101 125 145 142 132 126 109 114 137 149 148 136 95 91 92 44 41 44 37 32 24 25 44 54 58 45 30 21 26 51 61 83 78 46 57 41 7 68 86 84 75 65 313 284 259 267 300 11 40 34 51 23 343 28 87 306 300 290 305 318 339 345 293 354 16 311 290 182 176 164 185 241 217 213 232 235 233 235 241 247 255 268
154 149 133 99 92 106 103 109 120 129 145 156 153 140 170 206 215 223 310 59 28 339 11 28 13 8 8 13 17 22 39 30 27 27 30 50 60 94 93 37 62 84 44 76 92 89 80 168 227 308 295 268 263 64 54 41 31 302 259 300 332 304 296 299 315 344 40 297 290 43 78 283 306 313 120 115 197 213 184 208 234 234 237 243 249 257 260 265
174 170 178 214 325 96 122 135 136 160 191 208 248 263 244 225 210 236 359 43 297 316 39 25 2 21 20 17 14 57 98 321 18 29 31 49 63 80 90 47 66 85 109 110 93 14 80 172 209 292 310 280 236 134 359 44 63 235 227 266 306 303 289 303 328 315 240 282 332 21 71 209 291 293 19 57 278 236 215 224 228 223 228 236 244 255 256 256
195 202 228 257 268 280 269 246 260 260 243 254 272 268 237 197 197 164 74 84 283 316 56 68 78 49 32 35 44 73 77 12 3 19 24 44 58 61 71 57 89 110 144 138 126 266 288 141 245 279 245 305 225 153 2 28 83 148 174 250 314 327 293 303 309 265 265 42 4 341 26 110 272 281 310 25 359 276 249 228 210 212 220 230 238 249 254 253
209 224 242 259 268 275 277 272 271 265 258 262 260 239 203 194 222 34 83 205 308 66 51 71 100 30 2 37 48 50 48 33 29 21 27 43 49 57 92 107 117 118 93 61 111 172 246 62 334 301 301 349 168 115 28 18 181 341 16 258 280 302 278 271 271 274 328 64 250 297 353 51 280 287 287 354 6 314 280 100 95 107 192 232 235 245 253 256
208 229 243 256 264 268 269 267 265 261 253 248 238 216 188 165 103 47 49 245 93 98 9 34 153 340 336 292 47 37 48 40 15 19 38 53 55 68 100 119 125 114 73 54 63 97 119 113 82 36 38 21 33 99 133 249 274 316 322 220 196 245 244 217 245 278 24 22 245 268 323 48 294 283 218 149 176 113 78 80 93 86 66 252 247 258 257 260
202 223 238 252 259 259 258 258 252 241 228 222 208 183 163 117 68 88 229 222 104 258 342 49 316 346 4 121 56 18 49 47 8 15 32 42 51 59 80 105 88 70 82 60 56 113 153 134 68 86 85 359 343 207 211 238 277 303 276 253 80 295 281 78 312 5 70 306 251 252 331 51 211 262 181 148 153 102 77 73 84 80 63 49 341 294 276 270
202 222 237 246 250 249 248 251 239 216 203 191 174 162 140 53 6 193 226 291 70 309 7 75 326 6 17 45 53 4 19 28 8 30 34 1 41 29 12 340 117 72 48 351 65 168 201 182 146 133 97 349 306 303 305 269 252 255 291 337 35 9 353 25 340 7 94 256 236 165 1 7 225 240 174 128 121 94 91 101 101 93 57 19 329 307 298 290
220 246 254 247 241 240 238 232 211 194 185 166 161 155 96 78 249 201 203 302 306 329 45 64 8 48 35 45 50 354 3 326 342 43 59 305 82 17 336 288 186 150 197 182 126 254 307 299 166 123 37 309 339 15 12 321 311 313 346 26 58 62 25 341 328 1 2 267 248 33 342 298 262 252 170 132 134 128 123 130 148 243 294 312 311 316 318 317
340 294 272 253 236 231 217 198 189 180 170 163 157 80 67 129 241 185 199 252 269 286 7 21 261 62 43 67 134 307 58 309 306 39 37 292 334 319 254 58 37 48 123 92 105 141 52 300 299 60 359 297 341 50 122 292 316 300 177 109 100 110 124 238 316 288 276 284 295 338 318 213 249 263 157 135 142 149 150 172 212 277 293 296 302 320 332 335
9 328 288 298 231 218 190 174 176 166 166 170 100 59 86 217 249 97 197 231 203 210 294 329 288 71 32 53 182 273 122 183 297 45 358 292 325 21 92 34 23 35 45 105 15 86 125 257 291 68 322 322 18 23 31 5 319 293 51 76 91 115 136 148 137 186 210 328 308 271 235 212 191 152 115 117 134 168 175 205 245 278 289 291 293 309 331 339
16 281 285 346 349 204 176 170 165 161 168 143 70 88 225 240 230 97 71 93 130 148 126 341 351 67 323 287 3 331 93 140 201 92 351 40 92 65 121 28 9 34 72 111 75 5 57 280 248 150 344 26 69 2 40 74 286 317 30 35 248 285 100 114 24 8 100 54 285 252 275 292 344 34 64 117 133 164 161 196 235 253 275 284 296 314 332 340
17 46 10 359 353 26 155 162 151 162 168 89 77 202 225 183 225 331 356 356 214 128 119 148 305 111 194 178 158 196 132 45 339 138 264 350 73 69 120 94 13 52 77 86 87 94 114 274 255 214 348 46 132 344 344 231 229 77 68 243 248 31 76 117 17 351 40 299 287 268 287 302 333 330 300 143 148 169 162 185 212 221 265 293 317 341 348 340
29 125 17 5 7 25 132 149 145 153 124 68 78 239 164 147 268 346 347 352 26 12 121 216 267 119 167 157 162 139 109 138 303 87 250 239 102 355 112 104 30 60 71 20 39 65 144 296 291 314 3 195 246 7 337 275 240 172 242 275 70 97 51 334 92 3 346 306 294 304 320 295 240 235 234 191 197 187 163 165 156 70 32 5 358 357 341 333
347 201 346 6 12 11 130 149 151 142 90 70 231 257 85 96 355 28 348 19 40 15 296 247 70 80 354 137 151 81 91 185 251 80 291 182 113 349 39 120 95 64 18 21 61 110 91 85 288 299 2 57 353 57 173 269 274 281 310 336 29 124 168 222 137 160 189 280 300 315 334 297 241 223 188 195 201 172 150 153 120 69 32 7 355 344 334 338
346 20 18 10 6 353 166 153 143 115 73 66 230 274 33 334 338 4 76 65 55 40 336 302 55 146 231 261 220 230 107 258 272 184 254 157 97 13 23 56 85 121 40 35 59 350 64 102 256 308 360 9 291 217 198 171 151 278 32 77 15 62 122 182 117 137 154 165 290 309 305 273 256 335 59 173 181 150 143 147 123 79 20 355 345 337 334 345
20 25 358 351 5 9 150 131 85 61 74 110 95 40 327 350 16 359 56 52 44 45 3 349 33 141 164 189 250 227 162 229 276 293 286 126 79 22 45 30 14 125 103 53 46 7 82 123 233 291 302 257 234 257 355 5 61 152 149 151 170 170 118 74 340 312 105 143 190 205 284 273 268 356 38 68 86 94 112 128 129 94 355 347 343 337 336 348
87 35 344 341 345 176 136 97 46 45 73 110 91 53 16 86 52 20 20 34 14 280 309 33 41 56 80 138 225 131 123 165 181 308 340 112 70 13 73 43 16 96 103 85 84 98 107 107 249 252 228 181 207 214 13 299 277 131 157 144 73 120 136 128 196 248 305 98 139 122 251 269 275 342 47 65 70 65 102 142 150 288 331 338 340 338 338 348
122 9 320 332 304 185 132 73 24 60 55 51 100 84 73 75 48 28 351 327 267 260 257 83 48 45 49 317 93 83 35 171 158 122 75 108 58 359 257 70 71 60 70 108 113 52 59 130 215 263 258 110 185 246 276 291 313 26 265 223 157 187 141 143 172 173 156 188 157 106 254 267 276 290 334 234 139 178 225 211 224 289 321 335 334 332 337 349
155 181 219 351 297 188 163 134 153 119 80 66 69 53 57 28 347 142 183 239 249 295 281 129 58 70 56 18 81 107 359 33 73 49 88 128 52 35 262 264 73 39 47 123 117 49 347 160 128 321 333 345 344 347 321 313 281 252 261 183 171 138 108 79 92 94 325 219 182 164 238 257 270 260 236 234 194 217 244 245 255 277 314 333 327 326 337 352
126 152 162 41 27 196 179 136 132 126 124 124 96 125 166 145 236 198 170 149 201 327 13 106 91 94 86 65 79 61 22 50 45 354 29 79 71 62 344 239 92 50 54 110 94 91 192 209 138 151 235 264 256 232 212 118 215 234 191 157 189 163 148 149 82 107 242 223 180 180 235 262 288 287 261 262 275 290 290 298 302 306 327 329 321 323 339 2
141 99 45 34 26 67 101 90 96 117 137 153 157 188 177 159 198 195 170 137 171 99 105 130 127 103 103 94 73 48 7 10 48 15 309 92 96 15 52 95 92 59 76 94 84 82 31 308 220 204 217 213 195 212 213 131 156 204 188 187 198 201 195 172 104 183 208 213 211 219 239 270 284 280 274 283 301 312 321 329 332 329 325 324 324 329 348 13
151 155 117 59 31 58 78 69 63 106 157 172 169 166 155 146 163 184 182 185 188 152 117 104 150 153 166 151 113 95 330 349 58 113 280 127 94 39 129 118 82 117 99 94 86 82 58 288 246 217 236 243 243 250 204 168 213 222 213 210 198 197 194 179 201 217 177 160 252 234 221 257 271 274 277 283 297 317 322 317 314 316 320 324 331 338 351 9
91 159 162 154 138 124 96 55 70 104 126 138 158 159 139 144 162 183 185 176 265 194 171 328 243 224 213 170 136 156 185 350 274 223 265 128 117 101 139 30 317 166 123 97 91 96 117 258 262 191 262 276 288 272 220 187 223 228 220 220 200 192 192 194 219 228 192 213 252 258 280 278 274 277 280 288 303 310 303 299 300 305 312 315 319 331 347 2
96 119 133 135 130 152 162 115 103 115 97 86 123 156 150 165 179 178 137 114 359 262 179 220 263 229 219 206 113 140 186 213 256 252 199 151 166 175 159 334 244 195 166 131 117 85 138 239 237 108 288 285 278 271 243 210 238 253 244 234 210 208 208 206 227 234 223 245 259 269 285 284 276 275 282 294 300 299 293 293 297 300 301 299 303 321 341 356
126 125 143 132 106 106 120 103 91 110 82 59 98 178 175 182 186 179 158 157 149 267 178 203 252 200 184 195 169 175 218 177 117 245 184 152 166 209 199 173 141 163 220 181 158 35 158 228 161 96 321 293 289 339 71 194 219 250 258 246 222 224 224 221 237 237 228 251 259 267 281 278 271 274 284 290 289 289 288 291 300 306 305 303 306 317 334 350
152 147 151 135 111 101 109 84 48 49 32 94 171 188 183 198 187 165 162 188 175 165 177 186 180 109 60 222 210 227 18 78 83 163 178 169 177 191 195 163 137 140 189 190 161 143 174 232 45 79 346 288 317 10 281 237 238 252 264 255 231 222 217 215 224 211 201 225 246 268 269 256 264 279 291 281 271 270 282 294 307 309 305 305 308 317 332 348
234 185 172 148 125 161 163 173 108 84 296 199 148 157 149 145 162 148 139 262 189 172 188 186 152 130 99 211 222 219 82 86 76 146 171 180 162 128 118 140 144 145 166 170 149 159 176 201 259 109 204 275 293 273 261 321 324 275 256 239 215 208 213 223 236 224 208 202 202 221 234 243 268 296 292 282 280 281 289 300 303 299 299 303 306 314 332 349
Height
1526 1527 1527 1528 1529 1529 1528 1528 1529 1529 1529 1528 1528 1528 1530 1531 1531 1531 1531 1530 1530 1530 1530 1530 1529 1529 1529 1529 1529 1529 1529 1528 1528 1527 1525 1525 1525 1524 1525 1525 1525 1525 1525 1525 1524 1524 1525 1525 1525 1525 1526 1526 1526 1527 1527 1527 1527 1527 1527 1526 1531 1534 1538 1541 1539 1540 1542 1544 1547 1547 1548 1548 1549 1550 1550 1550 1550 1550 1550 1549 1549 1549 1548 1548 1548 1548 1547 1546
1527 1528 1528 1529 1530 1530 1529 1529 1529 1530 1529 1529 1529 1530 1531 1531 1531 1530 1530 1530 1530 1530 1530 1530 1529 1529 1529 1529 1529 1529 1529 1529 1528 1527 1526 1526 1525 1525 1525 1525 1525 1525 1525 1525 1524 1524 1525 1526 1526 1525 1527 1527 1527 1527 1528 1528 1528 1529 1527 1529 1537 1540 1542 1543 1541 1542 1542 1544 1546 1547 1548 1548 1549 1550 1550 1550 1549 1548 1548 1547 1547 1548 1547 1547 1546 1546 1546 1546
1527 1528 1529 1530 1531 1531 1529 1529 1529 1531 1531 1531 1531 1531 1531 1531 1531 1530 1529 1529 1530 1530 1530 1530 1529 1529 1529 1529 1529 1529 1530 1529 1529 1528 1527 1527 1526 1525 1525 1525 1525 1525 1525 1525 1524 1524 1524 1525 1525 1526 1527 1527 1528 1528 1528 1529 1529 1530 1530 1535 1543 1543 1543 1544 1543 1544 1543 1544 1546 1547 1548 1548 1549 1550 1550 1550 1548 1547 1547 1546 1546 1547 1546 1546 1546 1545 1545 1545
1528 1530 1531 1530 1531 1532 1531 1530 1531 1532 1532 1532 1531 1531 1531 1531 1531 1530 1529 1529 1530 1530 1530 1530 1529 1528 1528 1529 1529 1529 1529 1529 1529 1528 1528 1527 1526 1525 1525 1525 1525 1525 1525 1525 1525 1525 1525 1525 1525 1526 1527 1528 1528 1528 1529 1530 1530 1531 1535 1540 1543 1541 1543 1546 1545 1545 1545 1545 1546 1547 1548 1548 1549 1549 1549 1549 1548 1546 1545 1545 1545 1546 1546 1546 1546 1545 1544 1544
1529 1530 1530 1530 1531 1532 1532 1532 1532 1533 1532 1532 1531 1531 1531 1531 1531 1530 1530 1530 1530 1530 1530 1529 1528 1526 1527 1528 1529 1529 1529 1530 1530 1529 1528 1527 1526 1526 1525 1525 1526 1525 1525 1525 1525 1525 1525 1526 1526 1526 1527 1528 1528 1529 1531 1532 1531 1535 1541 1542 1542 1541 1544 1547 1546 1546 1546 1546 1547 1547 1548 1549 1549 1549 1548 1548 1548 1545 1544 1545 1545 1545 1545 1544 1544 1544 1543 1543
1529 1530 1530 1530 1531 1532 1532 1532 1532 1532 1532 1532 1532 1531 1531 1531 1531 1531 1531 1530 1530 1530 1530 1529 1527 1526 1526 1527 1528 1529 1530 1532 1531 1529 1528 1527 1526 1526 1526 1526 1525 1525 1525 1525 1525 1525 1526 1526 1526 1527 1528 1529 1529 1530 1533 1533 1532 1537 1543 1544 1543 1543 1544 1547 1546 1546 1547 1547 1547 1548 1548 1549 1548 1548 1547 1547 1546 1544 1544 1544 1544 1544 1543 1542 1542 1542 1542 1542
1529 1530 1530 1531 1531 1532 1532 1532 1532 1532 1532 1532 1532 1531 1531 1531 1531 1531 1531 1530 1530 1530 1530 1530 1529 1527 1527 1528 1529 1529 1530 1531 1531 1529 1528 1527 1526 1526 1526 1526 1525 1526 1525 1526 1526 1525 1526 1526 1527 1527 1528 1529 1531 1532 1534 1534 1533 1536 1543 1545 1545 1545 1545 1547 1547 1547 1547 1548 1548 1549 1549 1548 1548 1547 1546 1544 1543 1542 1543 1543 1543 1542 1541 1541 1540 1540 1541 1541
1530 1530 1531 1531 1532 1532 1532 1532 1532 1532 1532 1532 1532 1531 1531 1531 1531 1530 1530 1530 1530 1530 1530 1530 1530 1529 1529 1529 1529 1530 1530 1531 1530 1529 1528 1527 1526 1526 1526 1526 1526 1526 1526 1526 1526 1526 1526 1526 1526 1527 1528 1530 1532 1533 1534 1534 1535 1538 1543 1545 1545 1546 1547 1547 1547 1547 1548 1548 1549 1549 1548 1547 1546 1546 1544 1542 1540 1541 1541 1541 1541 1541 1540 1540 1539 1539 1540 1540
1530 1530 1531 1531 1532 1532 1532 1532 1532 1532 1532 1532 1532 1532 1531 1531 1530 1530 1530 1530 1530 1530 1530 1530 1530 1530 1530 1530 1530 1531 1532 1531 1530 1529 1528 1527 1527 1527 1526 1527 1526 1526 1526 1526 1526 1526 1526 1526 1526 1526 1528 1531 1533 1535 1535 1535 1538 1541 1543 1545 1545 1547 1547 1547 1547 1548 1548 1548 1548 1548 1547 1546 1545 1545 1542 1538 1538 1539 1539 1540 1539 1539 1539 1538 1539 1539 1539 1539
1530 1530 1531 1531 1532 1532 1532 1532 1532 1532 1532 1532 1532 1532 1531 1530 1530 1530 1530 1530 1529 1529 1530 1530 1531 1531 1531 1530 1530 1532 1533 1532 1531 1530 1529 1528 1528 1527 1527 1527 1527 1526 1526 1526 1526 1526 1526 1526 1527 1526 1528 1531 1534 1536 1536 1536 1540 1542 1543 1545 1546 1547 1547 1547 1548 1548 1548 1548 1548 1547 1546 1545 1545 1546 1541 1536 1537 1538 1537 1538 1538 1538 1538 1537 1538 1538 1538 1537
1530 1530 1530 1531 1531 1532 1532 1532 1532 1531 1531 1531 1531 1531 1531 1530 1530 1531 1530 1529 1529 1529 1529 1530 1530 1530 1531 1530 1530 1532 1534 1533 1532 1531 1530 1530 1529 1528 1528 1527 1527 1527 1526 1526 1526 1526 1526 1527 1527 1527 1529 1532 1535 1537 1538 1539 1541 1542 1543 1545 1546 1547 1547 1547 1547 1548 1548 1547 1547 1547 1546 1545 1545 1544 1538 1535 1536 1536 1536 1537 1537 1537 1536 1536 1536 1536 1536 1535
1530 1530 1530 1530 1531 1531 1531 1531 1531 1531 1531 1531 1531 1531 1531 1531 1531 1531 1530 1530 1529 1529 1529 1530 1530 1531 1531 1531 1531 1533 1534 1534 1533 1532 1531 1531 1530 1529 1528 1528 1527 1527 1527 1527 1526 1527 1527 1528 1527 1528 1530 1533 1536 1539 1540 1541 1542 1542 1542 1544 1547 1547 1547 1547 1547 1547 1548 1547 1546 1547 1544 1540 1542 1539 1533 1534 1535 1535 1536 1536 1536 1535 1535 1535 1535 1535 1534 1534
1529 1529 1529 1530 1530 1530 1530 1531 1531 1531 1531 1531 1531 1531 1531 1531 1531 1531 1531 1531 1530 1530 1531 1531 1531 1532 1531 1532 1534 1535 1535 1535 1534 1533 1533 1532 1530 1530 1529 1529 1529 1528 1528 1527 1527 1528 1528 1528 1528 1529 1531 1534 1537 1540 1541 1542 1543 1543 1542 1543 1547 1548 1547 1546 1547 1547 1547 1546 1546 1547 1541 1532 1534 1534 1531 1534 1534 1535 1536 1535 1535 1534 1534 1534 1534 1534 1534 1534
1528 1528 1529 1529 1530 1530 1530 1531 1531 1531 1531 1531 1532 1531 1532 1532 1531 1532 1532 1532 1532 1531 1532 1531 1532 1532 1532 1534 1536 1536 1535 1535 1534 1534 1533 1532 1531 1531 1531 1530 1530 1529 1529 1529 1529 1529 1529 1529 1529 1530 1533 1535 1537 1540 1541 1543 1543 1543 1542 1543 1545 1546 1546 1546 1547 1547 1547 1546 1545 1548 1544 1532 1529 1532 1532 1533 1533 1534 1535 1534 1534 1534 1534 1534 1534 1533 1533 1533
1527 1528 1529 1529 1530 1530 1530 1530 1531 1531 1532 1532 1532 1532 1532 1532 1532 1532 1532 1532 1532 1532 1532 1532 1532 1533 1533 1535 1536 1536 1536 1535 1535 1534 1534 1534 1533 1532 1532 1531 1530 1530 1530 1530 1530 1530 1530 1530 1530 1532 1535 1537 1538 1540 1542 1543 1542 1542 1544 1544 1541 1541 1545 1548 1547 1547 1547 1547 1545 1547 1545 1535 1529 1531 1532 1532 1533 1534 1534 1533 1533 1533 1533 1533 1533 1533 1533 1533
1527 1528 1528 1529 1530 1530 1530 1530 1531 1532 1532 1532 1532 1532 1532 1532 1532 1532 1532 1533 1533 1533 1533 1533 1533 1533 1534 1536 1537 1536 1536 1536 1535 1535 1535 1535 1534 1533 1533 1532 1531 1531 1531 1532 1532 1532 1532 1532 1533 1535 1538 1539 1539 1540 1542 1544 1543 1542 1544 1542 1538 1538 1542 1547 1548 1548 1548 1547 1546 1546 1545 1538 1532 1532 1532 1532 1532 1532 1533 1532 1532 1532 1532 1533 1532 1532 1532 1532
1528 1528 1529 1529 1530 1530 1530 1531 1531 1532 1532 1532 1532 1532 1533 1533 1533 1533 1533 1533 1533 1534 1534 1534 1534 1533 1535 1537 1537 1537 1536 1536 1536 1536 1536 1535 1535 1534 1534 1533 1533 1533 1533 1533 1533 1534 1533 1534 1535 1537 1538 1540 1540 1540 1543 1546 1545 1543 1542 1539 1537 1537 1538 1542 1547 1549 1548 1548 1546 1546 1546 1540 1533 1532 1531 1530 1530 1531 1531 1530 1531 1531 1531 1532 1532 1532 1532 1532
1529 1529 1529 1530 1530 1530 1531 1531 1532 1532 1532 1532 1532 1533 1533 1533 1533 1534 1534 1534 1534 1534 1534 1535 1534 1534 1537 1537 1538 1538 1537 1537 1536 1536 1536 1536 1535 1535 1535 1534 1534 1534 1534 1534 1534 1534 1534 1535 1536 1537 1540 1544 1547 1546 1546 1549 1549 1547 1545 1543 1541 1540 1537 1539 1546 1549 1547 1547 1546 1545 1544 1538 1532 1530 1529 1528 1528 1529 1529 1529 1529 1529 1530 1531 1531 1531 1531 1531
1529 1530 1530 1530 1530 1531 1532 1532 1533 1533 1533 1533 1533 1533 1534 1534 1534 1534 1534 1534 1534 1534 1536 1536 1535 1537 1539 1539 1538 1538 1537 1537 1536 1536 1536 1536 1536 1536 1535 1535 1535 1534 1534 1534 1536 1536 1536 1537 1539 1542 1549 1554 1556 1556 1555 1555 1555 1553 1549 1548 1546 1543 1541 1542 1547 1549 1548 1547 1546 1544 1541 1535 1530 1528 1526 1526 1526 1527 1527 1527 1528 1528 1528 1529 1529 1529 1530 1530
1530 1530 1531 1531 1531 1532 1532 1533 1533 1533 1533 1533 1534 1534 1534 1534 1534 1535 1535 1534 1535 1537 1538 1538 1537 1538 1539 1539 1539 1538 1538 1537 1536 1536 1536 1536 1536 1536 1536 1535 1535 1535 1535 1537 1538 1537 1537 1543 1551 1556 1560 1560 1560 1560 1559 1558 1556 1553 1550 1549 1546 1543 1543 1544 1548 1549 1548 1547 1542 1538 1537 1533 1529 1526 1524 1523 1524 1525 1526 1525 1526 1526 1526 1527 1527 1527 1527 1528
1531 1531 1531 1531 1532 1532 1532 1533 1533 1533 1533 1533 1534 1534 1534 1534 1534 1535 1536 1537 1539 1539 1540 1540 1539 1539 1539 1539 1539 1538 1538 1537 1537 1537 1536 1537 1536 1536 1536 1535 1535 1536 1538 1539 1539 1539 1540 1548 1559 1563 1562 1562 1561 1560 1559 1558 1555 1552 1552 1549 1544 1545 1546 1546 1548 1549 1548 1548 1541 1535 1536 1531 1527 1525 1522 1521 1523 1524 1524 1524 1524 1525 1525 1525 1525 1526 1526 1527
1532 1532 1532 1532 1532 1532 1532 1533 1533 1533 1533 1533 1533 1533 1534 1534 1534 1535 1535 1538 1541 1541 1540 1541 1540 1539 1540 1539 1539 1539 1538 1538 1538 1537 1537 1537 1537 1537 1536 1536 1536 1539 1540 1539 1540 1544 1548 1556 1562 1562 1562 1561 1560 1559 1559 1558 1556 1553 1551 1548 1547 1550 1550 1546 1549 1549 1548 1549 1543 1538 1539 1531 1524 1522 1520 1520 1522 1522 1522 1523 1523 1523 1524 1524 1525 1525 1526 1526
1533 1533 1533 1533 1533 1533 1532 1533 1533 1534 1534 1534 1534 1533 1534 1535 1536 1536 1536 1538 1541 1542 1541 1541 1540 1540 1540 1540 1540 1539 1539 1539 1539 1538 1537 1537 1537 1537 1537 1537 1538 1540 1542 1542 1542 1543 1550 1559 1563 1562 1562 1561 1559 1558 1558 1557 1556 1556 1552 1550 1553 1556 1554 1549 1549 1549 1547 1548 1545 1543 1542 1532 1522 1520 1519 1520 1521 1521 1522 1522 1522 1522 1523 1523 1524 1524 1524 1525
1534 1534 1534 1534 1534 1534 1533 1533 1534 1535 1535 1535 1535 1535 1535 1536 1536 1536 1536 1537 1540 1541 1541 1541 1540 1540 1540 1540 1540 1540 1540 1540 1540 1539 1538 1537 1538 1538 1538 1539 1540 1544 1547 1546 1544 1547 1555 1562 1563 1562 1561 1561 1559 1559 1560 1557 1554 1558 1559 1556 1558 1560 1561 1557 1554 1551 1548 1546 1547 1543 1536 1527 1520 1519 1520 1521 1521 1521 1521 1521 1521 1521 1522 1523 1523 1523 1524 1524
1534 1535 1535 1535 1535 1535 1534 1534 1535 1536 1536 1536 1537 1536 1537 1537 1537 1537 1537 1538 1540 1541 1541 1541 1541 1541 1541 1541 1541 1541 1541 1541 1541 1540 1539 1538 1538 1538 1540 1541 1542 1546 1549 1547 1547 1554 1560 1563 1562 1562 1561 1560 1559 1559 1562 1560 1554 1557 1562 1562 1562 1562 1563 1562 1558 1555 1548 1544 1547 1545 1534 1525 1519 1518 1520 1521 1522 1522 1521 1521 1521 1520 1521 1522 1522 1522 1523 1523
1535 1535 1535 1535 1536 1535 1535 1535 1536 1536 1536 1536 1537 1537 1537 1537 1537 1537 1536 1539 1543 1543 1542 1542 1542 1542 1542 1542 1542 1542 1542 1542 1542 1541 1540 1540 1539 1539 1541 1542 1544 1547 1549 1550 1551 1556 1561 1562 1563 1562 1561 1560 1559 1560 1563 1563 1556 1555 1560 1564 1564 1563 1563 1562 1561 1556 1547 1543 1547 1547 1541 1534 1524 1518 1520 1521 1521 1520 1520 1520 1520 1520 1521 1521 1521 1522 1522 1523
1534 1535 1535 1536 1536 1536 1535 1535 1536 1536 1536 1536 1536 1536 1537 1536 1537 1537 1538 1544 1547 1544 1543 1543 1543 1543 1543 1543 1542 1542 1544 1543 1542 1542 1541 1541 1541 1541 1541 1543 1545 1547 1550 1550 1550 1556 1561 1562 1562 1562 1561 1560 1558 1559 1563 1564 1558 1554 1561 1565 1563 1563 1563 1562 1562 1558 1551 1547 1547 1548 1547 1545 1535 1524 1521 1521 1521 1520 1519 1519 1518 1519 1520 1520 1520 1521 1521 1522
1535 1535 1535 1536 1536 1536 1535 1536 1536 1536 1536 1536 1536 1536 1536 1536 1538 1536 1541 1552 1550 1543 1543 1543 1543 1544 1543 1544 1543 1543 1544 1543 1543 1543 1542 1541 1542 1541 1542 1545 1546 1547 1551 1548 1548 1558 1563 1561 1561 1562 1560 1559 1559 1561 1564 1564 1560 1558 1564 1565 1562 1564 1563 1562 1563 1557 1551 1547 1546 1549 1550 1546 1536 1525 1522 1522 1521 1520 1517 1517 1517 1517 1518 1519 1520 1520 1521 1521
1535 1535 1536 1536 1536 1535 1536 1535 1536 1536 1536 1536 1536 1536 1536 1537 1538 1536 1543 1553 1549 1543 1544 1544 1544 1544 1544 1544 1544 1543 1543 1543 1544 1544 1543 1543 1543 1542 1543 1546 1546 1547 1550 1548 1550 1560 1563 1561 1562 1562 1560 1560 1561 1563 1564 1564 1563 1562 1564 1564 1564 1565 1563 1564 1563 1556 1551 1547 1546 1551 1552 1546 1534 1524 1524 1523 1521 1519 1517 1516 1517 1518 1518 1519 1520 1520 1521 1521
1535 1535 1536 1535 1535 1535 1535 1535 1536 1535 1535 1536 1536 1536 1537 1537 1538 1543 1552 1552 1546 1545 1544 1543 1545 1545 1544 1544 1544 1545 1544 1544 1545 1544 1544 1544 1544 1544 1545 1546 1546 1548 1550 1551 1555 1561 1562 1562 1562 1562 1562 1562 1563 1564 1563 1564 1563 1563 1564 1564 1565 1565 1564 1562 1559 1555 1549 1544 1548 1555 1554 1551 1540 1525 1520 1521 1519 1517 1516 1517 1517 1518 1519 1519 1520 1520 1520 1520
1535 1535 1535 1534 1535 1535 1535 1535 1535 1535 1535 1536 1536 1537 1537 1537 1539 1548 1554 1548 1544 1546 1544 1545 1546 1545 1545 1546 1546 1546 1546 1546 1546 1545 1545 1546 1546 1546 1547 1548 1547 1547 1550 1552 1557 1562 1562 1562 1562 1563 1563 1563 1563 1563 1563 1564 1564 1564 1564 1561 1558 1557 1557 1555 1555 1554 1546 1540 1550 1557 1554 1554 1546 1527 1518 1517 1516 1515 1516 1517 1518 1518 1519 1519 1519 1520 1519 1520
1535 1534 1534 1534 1534 1534 1534 1535 1534 1535 1536 1535 1537 1537 1538 1542 1544 1545 1546 1544 1545 1546 1546 1547 1547 1546 1546 1546 1548 1550 1549 1548 1547 1548 1548 1548 1550 1551 1551 1551 1550 1549 1549 1550 1555 1560 1561 1562 1563 1563 1563 1564 1563 1561 1561 1562 1564 1562 1561 1557 1549 1545 1546 1547 1545 1543 1541 1543 1552 1558 1557 1553 1540 1523 1517 1515 1514 1515 1516 1516 1518 1518 1518 1519 1519 1519 1519 1519
1535 1534 1534 1534 1534 1534 1534 1534 1535 1535 1536 1536 1538 1537 1538 1546 1548 1544 1543 1544 1545 1547 1547 1549 1548 1548 1548 1546 1549 1552 1550 1550 1549 1549 1550 1549 1551 1554 1555 1555 1554 1551 1548 1548 1552 1555 1557 1560 1563 1563 1562 1563 1563 1560 1556 1558 1560 1559 1557 1555 1548 1545 1548 1549 1543 1539 1542 1546 1553 1562 1559 1544 1530 1519 1514 1514 1514 1515 1515 1516 1517 1517 1518 1519 1519 1519 1519 1519
1534 1534 1534 1534 1534 1534 1534 1534 1535 1535 1536 1536 1537 1538 1541 1546 1546 1546 1546 1545 1547 1549 1549 1550 1549 1548 1548 1548 1551 1553 1550 1550 1551 1550 1550 1550 1549 1550 1553 1554 1555 1553 1551 1549 1549 1551 1551 1553 1559 1563 1562 1563 1564 1563 1561 1562 1562 1558 1559 1558 1552 1551 1553 1553 1551 1548 1547 1547 1551 1562 1554 1533 1525 1519 1512 1513 1514 1514 1516 1516 1517 1517 1517 1519 1518 1519 1519 1519
1534 1534 1534 1534 1534 1534 1534 1534 1535 1535 1536 1536 1536 1539 1544 1542 1538 1541 1544 1546 1549 1549 1549 1551 1550 1547 1548 1550 1553 1553 1551 1550 1551 1551 1550 1550 1549 1549 1553 1555 1555 1555 1553 1550 1550 1551 1549 1551 1561 1565 1563 1564 1564 1564 1565 1564 1561 1558 1560 1558 1554 1556 1555 1555 1560 1560 1559 1557 1551 1549 1539 1522 1518 1515 1511 1514 1514 1514 1516 1515 1516 1517 1517 1518 1518 1518 1519 1518
1534 1534 1534 1534 1534 1534 1534 1534 1534 1535 1535 1536 1538 1541 1543 1541 1540 1542 1544 1546 1548 1548 1548 1550 1549 1547 1547 1549 1551 1553 1553 1551 1551 1551 1550 1551 1552 1553 1555 1557 1558 1558 1555 1552 1552 1552 1550 1553 1564 1566 1563 1566 1565 1565 1567 1563 1559 1558 1558 1557 1559 1562 1559 1556 1564 1568 1568 1563 1544 1532 1529 1521 1517 1516 1513 1515 1515 1514 1516 1516 1516 1517 1516 1517 1517 1517 1518 1518
1534 1534 1533 1534 1534 1533 1534 1534 1534 1535 1535 1536 1538 1541 1543 1544 1546 1548 1547 1547 1547 1547 1548 1547 1548 1549 1546 1547 1550 1551 1552 1552 1551 1551 1550 1551 1553 1554 1556 1558 1559 1560 1559 1556 1554 1555 1554 1554 1563 1566 1563 1565 1565 1565 1566 1566 1564 1560 1557 1560 1562 1563 1561 1557 1558 1560 1560 1556 1540 1529 1529 1525 1524 1523 1516 1514 1516 1515 1515 1516 1516 1516 1516 1517 1517 1517 1518 1518
1534 1534 1534 1534 1533 1533 1534 1534 1535 1535 1536 1537 1539 1541 1545 1546 1548 1550 1549 1548 1547 1547 1548 1545 1548 1551 1545 1544 1548 1551 1552 1551 1549 1550 1549 1550 1552 1554 1556 1558 1559 1560 1560 1559 1556 1557 1557 1553 1559 1567 1564 1565 1567 1565 1563 1564 1567 1563 1560 1564 1562 1557 1558 1558 1557 1559 1559 1557 1546 1534 1531 1529 1526 1522 1516 1514 1515 1514 1515 1516 1516 1516 1517 1517 1517 1518 1517 1517
1533 1533 1533 1533 1533 1533 1534 1534 1536 1535 1536 1539 1537 1539 1546 1549 1548 1550 1549 1548 1548 1548 1547 1545 1547 1551 1549 1546 1548 1550 1552 1550 1548 1549 1548 1549 1552 1554 1556 1556 1559 1560 1560 1560 1558 1558 1559 1554 1555 1564 1566 1565 1566 1563 1559 1559 1564 1566 1563 1565 1563 1559 1559 1559 1558 1559 1559 1560 1555 1544 1538 1531 1519 1514 1513 1513 1512 1512 1514 1515 1515 1516 1517 1517 1517 1517 1517 1516
1533 1533 1533 1533 1533 1534 1534 1534 1536 1536 1537 1541 1540 1541 1548 1550 1549 1550 1549 1548 1549 1548 1547 1547 1546 1548 1549 1551 1551 1551 1552 1551 1550 1549 1548 1550 1551 1554 1557 1557 1558 1560 1560 1560 1559 1559 1560 1556 1554 1562 1568 1564 1561 1562 1561 1559 1561 1561 1560 1561 1561 1561 1563 1561 1561 1563 1561 1560 1560 1556 1549 1532 1514 1510 1510 1510 1510 1511 1512 1513 1514 1516 1516 1517 1517 1516 1516 1516
1533 1533 1533 1534 1534 1534 1534 1535 1537 1538 1540 1544 1546 1548 1550 1550 1549 1550 1549 1549 1550 1550 1549 1549 1548 1547 1548 1549 1550 1551 1551 1551 1551 1548 1547 1550 1551 1552 1557 1559 1558 1560 1559 1559 1560 1559 1559 1558 1557 1559 1559 1556 1559 1567 1569 1567 1566 1562 1558 1559 1558 1558 1560 1557 1560 1566 1565 1562 1560 1561 1557 1535 1514 1511 1511 1510 1511 1511 1511 1513 1513 1514 1516 1516 1516 1516 1515 1515
1533 1534 1534 1534 1535 1535 1535 1537 1540 1542 1542 1545 1548 1550 1551 1550 1550 1550 1550 1550 1551 1551 1551 1551 1550 1550 1550 1550 1550 1551 1552 1550 1550 1550 1548 1550 1553 1554 1558 1560 1560 1560 1559 1558 1560 1561 1561 1560 1558 1556 1557 1561 1566 1571 1570 1569 1570 1567 1563 1562 1560 1558 1557 1555 1558 1561 1564 1568 1565 1566 1564 1536 1512 1512 1513 1511 1512 1512 1512 1513 1513 1514 1515 1515 1515 1515 1514 1514
1534 1535 1535 1535 1535 1535 1536 1539 1542 1544 1547 1549 1550 1551 1551 1551 1551 1551 1551 1551 1551 1551 1551 1551 1551 1551 1551 1552 1552 1552 1552 1549 1548 1551 1550 1551 1556 1559 1560 1560 1560 1559 1559 1558 1559 1562 1562 1559 1557 1555 1558 1565 1570 1571 1571 1570 1569 1565 1562 1564 1562 1559 1557 1557 1558 1557 1561 1566 1562 1565 1564 1535 1511 1513 1514 1511 1512 1512 1512 1513 1513 1514 1514 1514 1514 1513 1513 1513
1535 1535 1535 1535 1535 1536 1536 1538 1540 1544 1549 1551 1551 1551 1551 1551 1552 1552 1552 1552 1552 1552 1550 1551 1552 1551 1552 1554 1553 1553 1554 1550 1547 1551 1552 1552 1557 1561 1560 1560 1561 1560 1560 1559 1560 1562 1559 1556 1556 1554 1552 1555 1558 1560 1563 1565 1566 1561 1559 1562 1561 1559 1560 1560 1559 1559 1561 1557 1552 1556 1554 1528 1511 1513 1513 1512 1513 1512 1512 1513 1512 1513 1513 1513 1513 1512 1512 1512
1535 1535 1535 1535 1536 1536 1536 1537 1537 1541 1547 1550 1550 1551 1552 1552 1552 1552 1553 1553 1552 1552 1551 1551 1552 1552 1553 1555 1554 1556 1558 1553 1549 1551 1553 1554 1558 1562 1561 1560 1561 1560 1561 1561 1562 1562 1560 1556 1556 1554 1551 1551 1550 1549 1551 1554 1558 1558 1558 1560 1560 1560 1560 1557 1558 1563 1560 1552 1549 1549 1539 1521 1512 1512 1511 1512 1513 1512 1512 1512 1512 1513 1513 1512 1512 1511 1511 1510
1535 1535 1536 1536 1536 1535 1536 1537 1537 1539 1544 1547 1547 1549 1550 1551 1552 1552 1552 1552 1552 1552 1551 1551 1551 1552 1552 1553 1552 1554 1558 1558 1556 1555 1553 1555 1559 1562 1561 1561 1561 1561 1561 1562 1562 1563 1561 1559 1557 1553 1550 1549 1548 1549 1552 1553 1554 1554 1555 1558 1560 1560 1559 1557 1559 1560 1553 1549 1547 1540 1531 1524 1518 1513 1512 1512 1513 1512 1512 1511 1512 1512 1512 1511 1511 1510 1509 1509
1535 1536 1536 1536 1536 1536 1537 1538 1538 1539 1541 1542 1543 1546 1548 1549 1551 1551 1551 1552 1551 1551 1551 1551 1551 1550 1550 1551 1551 1552 1557 1559 1558 1556 1553 1555 1560 1562 1561 1561 1561 1561 1562 1562 1563 1563 1562 1559 1557 1555 1552 1550 1551 1552 1553 1553 1553 1553 1553 1554 1557 1558 1559 1559 1557 1549 1543 1546 1543 1530 1528 1530 1521 1512 1512 1512 1512 1513 1512 1511 1511 1510 1510 1510 1509 1509 1508 1508
1535 1536 1537 1537 1537 1538 1538 1538 1539 1540 1540 1540 1542 1544 1545 1546 1547 1547 1548 1550 1550 1550 1549 1548 1549 1549 1548 1549 1548 1550 1555 1555 1554 1554 1554 1555 1558 1561 1561 1562 1562 1562 1562 1563 1563 1563 1563 1559 1556 1556 1554 1552 1553 1553 1552 1553 1553 1552 1551 1551 1553 1556 1557 1555 1551 1544 1541 1542 1536 1526 1528 1531 1519 1509 1510 1511 1512 1514 1512 1511 1510 1509 1509 1508 1507 1508 1507 1507
1535 1535 1537 1537 1537 1538 1538 1538 1539 1539 1539 1539 1541 1543 1543 1543 1544 1544 1546 1548 1549 1550 1549 1546 1547 1548 1548 1549 1548 1549 1551 1549 1548 1551 1553 1554 1556 1557 1558 1558 1560 1562 1563 1563 1564 1565 1563 1558 1557 1559 1556 1552 1551 1551 1551 1553 1552 1551 1550 1550 1550 1550 1550 1549 1546 1544 1544 1542 1533 1528 1532 1530 1515 1506 1508 1510 1510 1511 1510 1509 1508 1507 1508 1507 1506 1507 1506 1506
1535 1535 1535 1536 1537 1538 1538 1538 1538 1538 1538 1538 1538 1540 1541 1542 1542 1543 1545 1544 1544 1547 1549 1547 1546 1547 1547 1548 1549 1549 1549 1548 1546 1548 1551 1552 1552 1553 1553 1552 1556 1562 1564 1563 1564 1565 1562 1557 1557 1559 1555 1550 1550 1551 1551 1552 1553 1551 1548 1547 1547 1546 1547 1548 1546 1544 1546 1543 1534 1533 1539 1531 1511 1503 1507 1509 1508 1508 1508 1507 1506 1506 1506 1506 1505 1505 1505 1505
1535 1534 1534 1535 1536 1537 1538 1538 1538 1537 1537 1538 1537 1538 1540 1540 1540 1542 1543 1543 1543 1544 1547 1546 1546 1547 1548 1549 1549 1549 1549 1549 1548 1548 1549 1550 1549 1550 1551 1550 1552 1559 1563 1562 1562 1564 1563 1558 1556 1559 1555 1548 1549 1552 1551 1551 1553 1551 1545 1540 1541 1543 1543 1541 1539 1537 1538 1536 1534 1537 1538 1524 1506 1502 1507 1506 1505 1506 1506 1505 1505 1504 1504 1504 1503 1503 1503 1503
1535 1535 1535 1534 1535 1537 1537 1537 1538 1537 1536 1537 1537 1538 1539 1539 1540 1541 1541 1542 1543 1543 1545 1545 1545 1547 1548 1548 1548 1548 1548 1548 1549 1549 1549 1549 1549 1549 1550 1550 1551 1553 1558 1561 1561 1561 1561 1558 1554 1555 1553 1548 1550 1553 1551 1551 1549 1540 1530 1525 1528 1533 1535 1534 1532 1530 1528 1528 1531 1531 1521 1508 1503 1505 1506 1504 1504 1505 1504 1504 1504 1503 1502 1502 1502 1502 1502 1501